Torna al catalogo

STARLINK-36780

AttivoComunicazioniVLEO
NORAD 67866·PAYLOAD·🇺🇸 United States

Lanciato Feb 20, 2026 da Vandenberg Space Force Base

Loading…

Prossimi Passaggi (prossime 24 ore)

TLE

AggiornatoSource: CelesTrak SupGP

Epoca: Sep 14, 2026, 23:14 UTC

1 67866C 26034S   26257.96854167  .00012708  00000+0  37551-3 0  2574
2 67866  53.1595  43.5897 0001111  72.8699   7.9040 15.34380029    10

Traccia STARLINK-36780 in tempo reale con AllMySat

Download on the App Store